Regional Weather Roundup
Issued by NWS Wakefield, VA

Home | Current Version | Previous Version | Graphics & Text | Print | Product List | Glossary On
Versions: 1 2 3 4 5 6 7 8 9 10 11 12 13 14 15 16 17 18 19 20 21 22 23 24 25 26 27 28 29 30 31 32 33 34 35 36 37 38 39 40 41 42 43 44 45 46 47 48 49 50
000
ASUS41 KAKQ 010915
RWRAKQ

REGIONAL WEATHER ROUNDUP
NATIONAL WEATHER SERVICE WAKEFIELD VA
500 AM EDT WED JUL 01 2015

Note: "fair" indicates few or no clouds below 12,000 feet with no
significant weather and/or obstructions to visibility. * = Denotes
station may not report precipitation (e.g., rain,snow,etc.),
thunder or fog.

VAZ042-051-052>054-056-011000-
NORTHERN VIRGINIA

CITY           SKY/WX    TMP DP  RH WIND       PRES   REMARKS
WASH NATIONAL  CLOUDY    69  66  90 W3        29.85R
DULLES         CLOUDY    67  65  93 CALM      29.84R FOG
FORT BELVOIR   PTCLDY    66  64  94 CALM      29.84S FOG
QUANTICO       CLEAR     69  65  86 SW3       29.85R
FREDERICKSBRG*   N/A     68  68 100 S3        29.84R FOG
STAFFORD*      FOG       65  64  97 CALM      29.88R VSB<1/4
WARRENTON      CLOUDY    67  67 100 CALM      29.85R FOG
CULPEPER*      CLOUDY    64  64 100 CALM      29.86R VSB 1/2
MANASSAS*      CLOUDY    66  66 100 CALM      29.85R
LEESBURG*      CLOUDY    66  66 100 CALM      29.85S
WINCHESTER     CLOUDY    66  64  94 SW5       29.85R
FRONT ROYAL*   FAIR      64  64 100 SW5       29.84S
LURAY*         PTSUNNY   66  66 100 SW5       29.86S
$$

VAZ048-049-060>072-079>083-011000-
CENTRAL AND SOUTH CENTRAL VIRGINIA

CITY           SKY/WX    TMP DP  RH WIND       PRES   REMARKS
RICHMOND       MOCLDY    69  67  93 S5        29.86R
CHESTERFIELD*  FAIR      68  57  68 S3        29.88R
PETERSBURG*    CLEAR     69  69 100 S3        29.88R
HANOVER        PTCLDY    69  68  96 SW3       29.87R
TAPPAHANNOCK*  PTCLDY    69  65  88 S3        29.87R
QUINTON*       CLOUDY    68  67  98 SW3       29.87R
CHARLOTTSVILLE PTCLDY    68  61  78 SW5       29.86R
GORDONSVILLE*  FAIR      64  64 100 SW3       29.85S FOG
ORANGE*        FOG       64  63  94 CALM      29.87R VSB 1/2
LOUISA*        CLOUDY    66  66 100 CALM      29.85S FOG
BUMPASS*       FAIR      65  65  99 CALM      29.85S
FARMVILLE*     CLEAR     66  66 100 SW3       29.87R
CREWE*         FAIR      68  66  94 SW3       29.88R
FORT PICKETT*  FAIR      66  65  97 CALM      29.89R
CHASE CITY*    FAIR      69  69 100 CALM      29.89S
CLARKSVILLE*   FAIR      64  64 100 CALM      29.89S
SOUTH HILL*    CLEAR     66  65  97 CALM      29.95S
LAWRENCEVILLE* NOT AVBL
EMPORIA*         N/A     66  66 100 CALM      29.91R
$$

VAZ088>098-011000-
SOUTHEAST VIRGINIA

CITY           SKY/WX    TMP DP  RH WIND       PRES   REMARKS
NORFOLK        PTCLDY    73  65  75 SW14      29.88S
VIRGINIA BEACH MOCLDY    75  66  73 SW9       29.88S
NORFOLK NAVAL  MOCLDY    73  66  78 SW12G18   29.89S
WEST POINT*    PTCLDY    73  68  86 S5        29.86F
SALUDA*        FAIR      69  67  92 SW10G20   29.85R
NEWPORT NEWS   PTCLDY    72  67  84 SW12G20   29.87S
LANGLEY AFB    CLOUDY    73  67  82 SW14      29.86S
FORT EUSTIS    MOCLDY    72  72 100 VRB6      29.86R
WILLIAMSBURG*  PTCLDY    73  70  88 SW8       29.88R
HR EXEC AP*    FAIR      70  64  83 SW8       29.91S
FRANKLIN*      CLEAR     69  67  94 S5        29.90R
WAKEFIELD      CLEAR     70  67  90 S3        29.87S
$$

VAZ020-022-025-037-045-011000-
WEST CENTRAL AND SOUTHWEST VIRGINIA

CITY           SKY/WX    TMP DP  RH WIND       PRES   REMARKS
STAUNTON*      PTCLDY    65  62  88 S5        29.92R
WAYNESBORO*    NOT AVBL
HOT SPRINGS VA CLEAR     56  56 100 W14G20    29.97F
LYNCHBURG      CLEAR     60  60 100 CALM      29.91R
DANVILLE       CLEAR     67  64  90 SW5       29.91R
SOUTH BOSTON*  FAIR      66  64  94 MISG      29.90R
MARTINSVILLE   PTCLDY    63  63 100 CALM      29.95S FOG
ROANOKE        CLEAR     63  60  90 W3        29.95R
BLACKSBURG     CLEAR     59  59 100 CALM      30.00S
DUBLIN*        CLEAR     60  60  99 SW5       29.99S
MARION*        CLOUDY    64  62  94 W10       30.02F FOG
HILLSVILLE*    CLEAR     61  59  91 W3        29.99F
RICHLANDS*     FAIR      59  57  95 W3        30.01S
WISE*          CLEAR     61  61 100 W7        30.02F
ABINGDON*      CLOUDY    65  65  99 CALM      30.00F FOG
$$

MDZ021>025-VAZ099-100-011000-
SOUTHERN MARYLAND AND THE DELMARVA PENINSULA

CITY           SKY/WX    TMP DP  RH WIND       PRES   REMARKS
PATUXENT RIVER CLOUDY    69  68  96 SE3       29.83R
BAY BRIDGE APT   N/A     68  68 100 W6        29.82S
LEONARDTOWN    MOCLDY    68  64  88 SW3       29.85R
DOVER          LGT RAIN  68  68 100 W5        29.77F
GEORGETOWN     CLOUDY    71  64  78 E3        29.79F
EASTON         CLOUDY    69  69 100 CALM      29.85S FOG
CAMBRIDGE      CLOUDY    70  66  88 S3        29.83R
SALISBURY      CLOUDY    71  68  90 S3        29.82F
OCEAN CITY     CLOUDY    73  67  81 CALM      29.82F
WALLOPS ISLAND CLOUDY    74  69  85 SW7       29.84F
ACCOMACK*      CLOUDY    73  68  83 SW8G17    29.84F
$$

NCZ012>017-030>032-011000-
NORTH CENTRAL AND EASTERN NORTH CAROLINA

CITY           SKY/WX    TMP DP  RH WIND       PRES   REMARKS
ROANOKE RAPIDS FAIR      68  66  94 SW7       29.90S
RALEIGH        PTCLDY    68  66  93 SW6       29.92S
ELIZABETH CITY MOCLDY    76  66  71 SW12      29.90S
AHOSKIE*       CLEAR     67  66  96 S3        29.90F
EDENTON*       MOCLDY    77  66  68 SW13G20   29.91S
CURRITUCK*     MOCLDY    77  65  65 SW6       29.91R
KILL DEVIL HLS MOCLDY    79  70  74 SW7G17    29.91S
MANTEO         MOCLDY    78  72  82 SW10      29.92S
CAPE HATTERAS  CLEAR     79  73  82 SW14G22   29.95S
TARBORO*         N/A     72  67  84 S6        29.93R
GOLDSBORO      PTCLDY    70  69  95 SW6       29.92R
WASHINGTON     MOCLDY    74  65  74 SW7       29.92F
GREENVILLE     MOCLDY    72  68  88 SW7       29.95R
NEW BERN       PTCLDY    74  66  76 SW7       29.94F
WILMINGTON     PTCLDY    74  66  76 SW10      29.96S
$$

VAZ048-011000-
ELSEWHERE

CITY           SKY/WX    TMP DP  RH WIND       PRES   REMARKS
HARRISBURG PA  CLOUDY    68  63  84 CALM      29.80S
BALTIMORE      CLOUDY    66  65  96 SW5       29.82R
ANNAPOLIS      CLOUDY    67  65  93 CALM      29.81S
ANDREWS AFB    MOCLDY    66  65  99 W5        29.83S
PHILADELPHIA   LGT RAIN  70  66  87 S7        29.79F
HENDERSON NC   CLEAR     67  64  91 SW8       29.90F
GREENSBORO     MOCLDY    68  65  90 SW9       29.92F
ROCKY MOUNT    PTCLDY    69  67  93 SW6       29.92R
$$

VAZ100-011000-
MARINE

STATION/POSITION TIME  TEMP    WIND        PRES    WAVE   SWELL
                       AIR SEA DIR/SP/G            HT/PER HT/PER
                 (UTC) (F)     (DEG/KT/KT) (MB)    (FT/S) (FT/S)
BRANDYWINE LGT   0800   73 73  270/ 22/ 24 1010.2R
CAPE MAY NJ      0800   74 77  270/ 18/ 22 1009.8R
LEWES DE         0800   74 69  270/ 12/ 15 1010.5R
15NM E FENWICK I 0850   74 72              1010.4R   4/ 6
OCEAN-CITY-INLET 0800   75 74  310/  8/ 11 1010.4R
WACHAPREAGUE VA  0800   76 81  260/  8/ 14 1011.1R
GOOSES REEF MD   0900   73 78  280/ 14/ 16 1010.7R
COVE POINT MD    0800   70     280/  6/ 11 1009.9F
SOLOMONS ISLAND  0800      80                N/A
BISHOPS HEAD MD  0800   72     360/  4/  6 1009.1F
PINEY POINT MD   0800          260/  3/  5   N/A
CAMBRIDGE MD     0800   69 79  120/  1/  3 1009.8F
LEWISETTA VA     0800   70 80  230/  7/ 10 1009.6F
RAPPAHANNOCK LGT 0800          230/ 15/ 17 1011.3R
STINGRAY PT      0900   74 80  230/ 17/ 21 1010.7R   2/ 3
YORK RVR RNG VA  0800   74     240/ 17/ 20 1010.2F
YORKTOWN VA      0800   72 80  220/ 12/ 17 1010.5F
JAMESTOWN VA     0900   71 82  220/ 12/ 16   N/A
DOMINION TERM VA 0800   74     250/ 14/ 16 1011.5R
KIPTOPEKE VA     0800      82  240/ 16/ 19   N/A
CHES BAY BRIDGE  0800   75 77  210/ 12/ 15 1011.3R
CHESAPEAKE LGHT  0800   75     220/ 16/ 17 1012.4R
WILLOUBY STN VA  0800   74     230/ 15/ 16 1012.4R
CAPE HENRY BUOY  0828      77                N/A     3/ 8
1ST LANDING BUOY 0900      76              1011.2F
CAPE CHARLES BUO 0826      72                N/A     3/ 8   2/ 8
OFFSHORE WE BUOY 0811      78                N/A     4/ 6   2/ 7
64NM E OF VA BCH 0850   78 76  220/ 16/ 17 1012.3R   4/ 5   2/ 8
DUCK PIER NC     0800   79 63  230/ 17/ 22 1011.8R
44100 DUCK FRF   0824      76                N/A     3/ 5
44056 DUCK FRF   0811      67                N/A     3/ 9
OREGON INLET NC  0800   80 82  230/ 19/ 22 1013.1R
HATTERAS NC      0800   80 82  220/ 11/ 19 1013.8R
DIAMOND SHLS NC  0850   82 82  230/ 21/ 27 1014.0R   6/ 6   2/15
CAPE LOOKOUT NC  0900   80     230/ 13/ 18 1013.5F
$$


USA.gov is the U.S. government's official web portal to all federal, state and local government web resources and services.